owner,sensor,date,latitude,longitude,vertical_datum,wind_speed,wind_to_direction,wind_speed_of_gust,qcFlag 
WAVCIS,ioos:station:WAVCIS:CSI09:1,2011-03-01T00:00:00Z,29.1015,-89.9782,0.0,3.845,201.0,,'11111222,11111222,99999999' 
WAVCIS,ioos:station:WAVCIS:CSI09:1,2011-03-01T01:00:00Z,29.1015,-89.9782,0.0,4.413,214.0,,'11111222,11111222,99999999' 
WAVCIS,ioos:station:WAVCIS:CSI09:1,2011-03-01T02:00:00Z,29.1015,-89.9782,0.0,7.22,233.0,,'11111222,11111222,99999999' 
WAVCIS,ioos:station:WAVCIS:CSI09:1,2011-03-01T03:00:00Z,29.1015,-89.9782,0.0,8.15,249.0,,'11111222,11111222,99999999' 
WAVCIS,ioos:station:WAVCIS:CSI09:1,2011-03-01T04:00:00Z,29.1015,-89.9782,0.0,6.478,269.0,,'11111222,11111222,99999999' 
WAVCIS,ioos:station:WAVCIS:CSI09:1,2011-03-01T05:00:00Z,29.1015,-89.9782,0.0,9.51,337.0,,'11111222,11111222,99999999' 
WAVCIS,ioos:station:WAVCIS:CSI09:1,2011-03-01T06:00:00Z,29.1015,-89.9782,0.0,10.5,8.0,,'11111222,11111222,99999999' 
WAVCIS,ioos:station:WAVCIS:CSI09:1,2011-03-01T07:00:00Z,29.1015,-89.9782,0.0,11.97,14.0,,'11111222,11111222,99999999' 
WAVCIS,ioos:station:WAVCIS:CSI09:1,2011-03-01T08:00:00Z,29.1015,-89.9782,0.0,10.6,16.0,,'11111222,11111222,99999999' 
WAVCIS,ioos:station:WAVCIS:CSI09:1,2011-03-01T09:00:00Z,29.1015,-89.9782,0.0,11.1,10.0,,'11111222,11111222,99999999' 
WAVCIS,ioos:station:WAVCIS:CSI09:1,2011-03-01T10:00:00Z,29.1015,-89.9782,0.0,10.99,12.0,,'11111222,11111222,99999999' 
WAVCIS,ioos:station:WAVCIS:CSI09:1,2011-03-01T11:00:00Z,29.1015,-89.9782,0.0,11.95,25.0,,'11111222,11111222,99999999' 
WAVCIS,ioos:station:WAVCIS:CSI09:1,2011-03-01T12:00:00Z,29.1015,-89.9782,0.0,11.34,24.0,,'11111222,11111222,99999999' 
WAVCIS,ioos:station:WAVCIS:CSI09:1,2011-03-01T13:00:00Z,29.1015,-89.9782,0.0,11.08,24.0,,'11111222,11111222,99999999' 
WAVCIS,ioos:station:WAVCIS:CSI09:1,2011-03-01T14:00:00Z,29.1015,-89.9782,0.0,10.88,21.0,,'11111222,11111222,99999999' 
WAVCIS,ioos:station:WAVCIS:CSI09:1,2011-03-01T15:00:00Z,29.1015,-89.9782,0.0,9.01,26.0,,'11111222,11111222,99999999' 
WAVCIS,ioos:station:WAVCIS:CSI09:1,2011-03-01T16:00:00Z,29.1015,-89.9782,0.0,9.02,27.0,,'11111222,11111222,99999999' 
WAVCIS,ioos:station:WAVCIS:CSI09:1,2011-03-01T17:00:00Z,29.1015,-89.9782,0.0,8.25,33.0,,'11111222,11111222,99999999' 
WAVCIS,ioos:station:WAVCIS:CSI09:1,2011-03-01T18:00:00Z,29.1015,-89.9782,0.0,7.1,38.0,,'11111222,11111222,99999999' 
WAVCIS,ioos:station:WAVCIS:CSI09:1,2011-03-01T19:00:00Z,29.1015,-89.9782,0.0,6.607,46.0,,'11111222,11111222,99999999' 
WAVCIS,ioos:station:WAVCIS:CSI09:1,2011-03-01T20:00:00Z,29.1015,-89.9782,0.0,6.116,61.0,,'11111222,11111222,99999999' 
WAVCIS,ioos:station:WAVCIS:CSI09:1,2011-03-01T21:00:00Z,29.1015,-89.9782,0.0,5.613,63.0,,'11111222,11111222,99999999' 
WAVCIS,ioos:station:WAVCIS:CSI09:1,2011-03-01T22:00:00Z,29.1015,-89.9782,0.0,6.014,64.0,,'11111222,11111222,99999999' 
WAVCIS,ioos:station:WAVCIS:CSI09:1,2011-03-01T23:00:00Z,29.1015,-89.9782,0.0,6.715,67.0,,'11111222,11111222,99999999' 
WAVCIS,ioos:station:WAVCIS:CSI09:1,2011-03-02T00:00:00Z,29.1015,-89.9782,0.0,6.716,65.0,,'11111222,11111222,99999999' 
WAVCIS,ioos:station:WAVCIS:CSI09:1,2011-03-02T01:00:00Z,29.1015,-89.9782,0.0,5.431,67.0,,'11111222,11111222,99999999' 
WAVCIS,ioos:station:WAVCIS:CSI09:1,2011-03-02T02:00:00Z,29.1015,-89.9782,0.0,5.309,60.0,,'11111222,11111222,99999999' 
WAVCIS,ioos:station:WAVCIS:CSI09:1,2011-03-02T03:00:00Z,29.1015,-89.9782,0.0,5.703,65.0,,'11111222,11111222,99999999' 
WAVCIS,ioos:station:WAVCIS:CSI09:1,2011-03-02T04:00:00Z,29.1015,-89.9782,0.0,5.14,66.0,,'11111222,11111222,99999999' 
WAVCIS,ioos:station:WAVCIS:CSI09:1,2011-03-02T05:00:00Z,29.1015,-89.9782,0.0,5.233,78.0,,'11111222,11111222,99999999' 
WAVCIS,ioos:station:WAVCIS:CSI09:1,2011-03-02T06:00:00Z,29.1015,-89.9782,0.0,4.911,83.0,,'11111222,11111222,99999999' 
WAVCIS,ioos:station:WAVCIS:CSI09:1,2011-03-02T07:00:00Z,29.1015,-89.9782,0.0,4.704,71.0,,'11111222,11111222,99999999' 
WAVCIS,ioos:station:WAVCIS:CSI09:1,2011-03-02T08:00:00Z,29.1015,-89.9782,0.0,5.781,68.0,,'11111222,11111222,99999999' 
WAVCIS,ioos:station:WAVCIS:CSI09:1,2011-03-02T09:00:00Z,29.1015,-89.9782,0.0,7.29,47.0,,'11111222,11111222,99999999' 
WAVCIS,ioos:station:WAVCIS:CSI09:1,2011-03-02T10:00:00Z,29.1015,-89.9782,0.0,7.91,47.0,,'11111222,11111222,99999999' 
WAVCIS,ioos:station:WAVCIS:CSI09:1,2011-03-02T11:00:00Z,29.1015,-89.9782,0.0,8.48,57.0,,'11111222,11111222,99999999' 
WAVCIS,ioos:station:WAVCIS:CSI09:1,2011-03-02T12:00:00Z,29.1015,-89.9782,0.0,8.03,65.0,,'11111222,11111222,99999999' 
WAVCIS,ioos:station:WAVCIS:CSI09:1,2011-03-02T13:00:00Z,29.1015,-89.9782,0.0,7.87,63.0,,'11111222,11111222,99999999' 
WAVCIS,ioos:station:WAVCIS:CSI09:1,2011-03-02T14:00:00Z,29.1015,-89.9782,0.0,8.24,63.0,,'11111222,11111222,99999999' 
WAVCIS,ioos:station:WAVCIS:CSI09:1,2011-03-02T15:00:00Z,29.1015,-89.9782,0.0,8.22,56.0,,'11111222,11111222,99999999' 
WAVCIS,ioos:station:WAVCIS:CSI09:1,2011-03-02T16:00:00Z,29.1015,-89.9782,0.0,8.01,60.0,,'11111222,11111222,99999999' 
WAVCIS,ioos:station:WAVCIS:CSI09:1,2011-03-02T17:00:00Z,29.1015,-89.9782,0.0,8.04,78.0,,'11111222,11111222,99999999' 
WAVCIS,ioos:station:WAVCIS:CSI09:1,2011-03-02T18:00:00Z,29.1015,-89.9782,0.0,7.79,74.0,,'11111222,11111222,99999999' 
WAVCIS,ioos:station:WAVCIS:CSI09:1,2011-03-02T19:00:00Z,29.1015,-89.9782,0.0,5.489,79.0,,'11111222,11111222,99999999' 
WAVCIS,ioos:station:WAVCIS:CSI09:1,2011-03-02T20:00:00Z,29.1015,-89.9782,0.0,5.52,71.0,,'11111222,11111222,99999999' 
WAVCIS,ioos:station:WAVCIS:CSI09:1,2011-03-02T21:00:00Z,29.1015,-89.9782,0.0,5.248,80.0,,'11111222,11111222,99999999' 
WAVCIS,ioos:station:WAVCIS:CSI09:1,2011-03-02T22:00:00Z,29.1015,-89.9782,0.0,7.46,82.0,,'11111222,11111222,99999999' 
WAVCIS,ioos:station:WAVCIS:CSI09:1,2011-03-02T23:00:00Z,29.1015,-89.9782,0.0,7.67,82.0,,'11111222,11111222,99999999' 
WAVCIS,ioos:station:WAVCIS:CSI09:1,2011-03-03T00:00:00Z,29.1015,-89.9782,0.0,9.29,79.0,,'11111222,11111222,99999999' 
WAVCIS,ioos:station:WAVCIS:CSI09:1,2011-03-03T01:00:00Z,29.1015,-89.9782,0.0,10.15,78.0,,'11111222,11111222,99999999' 
WAVCIS,ioos:station:WAVCIS:CSI09:1,2011-03-03T02:00:00Z,29.1015,-89.9782,0.0,10.72,69.0,,'11111222,11111222,99999999' 
WAVCIS,ioos:station:WAVCIS:CSI09:1,2011-03-03T03:00:00Z,29.1015,-89.9782,0.0,10.07,76.0,,'11111222,11111222,99999999' 
WAVCIS,ioos:station:WAVCIS:CSI09:1,2011-03-03T04:00:00Z,29.1015,-89.9782,0.0,8.6,75.0,,'11111222,11111222,99999999' 
WAVCIS,ioos:station:WAVCIS:CSI09:1,2011-03-03T05:00:00Z,29.1015,-89.9782,0.0,9.26,76.0,,'11111222,11111222,99999999' 
WAVCIS,ioos:station:WAVCIS:CSI09:1,2011-03-03T06:00:00Z,29.1015,-89.9782,0.0,8.92,81.0,,'11111222,11111222,99999999' 
WAVCIS,ioos:station:WAVCIS:CSI09:1,2011-03-03T07:00:00Z,29.1015,-89.9782,0.0,8.55,77.0,,'11111222,11111222,99999999' 
WAVCIS,ioos:station:WAVCIS:CSI09:1,2011-03-03T08:00:00Z,29.1015,-89.9782,0.0,6.986,76.0,,'11111222,11111222,99999999' 
WAVCIS,ioos:station:WAVCIS:CSI09:1,2011-03-03T09:00:00Z,29.1015,-89.9782,0.0,7.1,78.0,,'11111222,11111222,99999999' 
WAVCIS,ioos:station:WAVCIS:CSI09:1,2011-03-03T10:00:00Z,29.1015,-89.9782,0.0,6.126,82.0,,'11111222,11111222,99999999' 
WAVCIS,ioos:station:WAVCIS:CSI09:1,2011-03-03T11:00:00Z,29.1015,-89.9782,0.0,6.422,80.0,,'11111222,11111222,99999999' 
WAVCIS,ioos:station:WAVCIS:CSI09:1,2011-03-03T12:00:00Z,29.1015,-89.9782,0.0,7.44,74.0,,'11111222,11111222,99999999' 
WAVCIS,ioos:station:WAVCIS:CSI09:1,2011-03-03T13:00:00Z,29.1015,-89.9782,0.0,7.79,73.0,,'11111222,11111222,99999999' 
WAVCIS,ioos:station:WAVCIS:CSI09:1,2011-03-03T14:00:00Z,29.1015,-89.9782,0.0,8.06,67.0,,'11111222,11111222,99999999' 
WAVCIS,ioos:station:WAVCIS:CSI09:1,2011-03-03T15:00:00Z,29.1015,-89.9782,0.0,9.24,59.0,,'11111222,11111222,99999999' 
WAVCIS,ioos:station:WAVCIS:CSI09:1,2011-03-03T16:00:00Z,29.1015,-89.9782,0.0,7.28,63.0,,'11111222,11111222,99999999' 
WAVCIS,ioos:station:WAVCIS:CSI09:1,2011-03-03T17:00:00Z,29.1015,-89.9782,0.0,6.536,60.0,,'11111222,11111222,99999999' 
WAVCIS,ioos:station:WAVCIS:CSI09:1,2011-03-03T18:00:00Z,29.1015,-89.9782,0.0,6.878,69.0,,'11111222,11111222,99999999' 
WAVCIS,ioos:station:WAVCIS:CSI09:1,2011-03-03T19:00:00Z,29.1015,-89.9782,0.0,7.81,81.0,,'11111222,11111222,99999999' 
WAVCIS,ioos:station:WAVCIS:CSI09:1,2011-03-03T20:00:00Z,29.1015,-89.9782,0.0,8.49,85.0,,'11111222,11111222,99999999' 
WAVCIS,ioos:station:WAVCIS:CSI09:1,2011-03-03T21:00:00Z,29.1015,-89.9782,0.0,8.72,88.0,,'11111222,11111222,99999999' 
WAVCIS,ioos:station:WAVCIS:CSI09:1,2011-03-03T22:00:00Z,29.1015,-89.9782,0.0,9.19,87.0,,'11111222,11111222,99999999' 
WAVCIS,ioos:station:WAVCIS:CSI09:1,2011-03-03T23:00:00Z,29.1015,-89.9782,0.0,8.58,87.0,,'11111222,11111222,99999999' 
WAVCIS,ioos:station:WAVCIS:CSI09:1,2011-03-04T00:00:00Z,29.1015,-89.9782,0.0,9.66,85.0,,'11111222,11111222,99999999' 
WAVCIS,ioos:station:WAVCIS:CSI09:1,2011-03-04T01:00:00Z,29.1015,-89.9782,0.0,8.57,90.0,,'11111222,11111222,99999999' 
WAVCIS,ioos:station:WAVCIS:CSI09:1,2011-03-04T02:00:00Z,29.1015,-89.9782,0.0,8.02,92.0,,'11111222,11111222,99999999' 
WAVCIS,ioos:station:WAVCIS:CSI09:1,2011-03-04T03:00:00Z,29.1015,-89.9782,0.0,7.8,97.0,,'11111222,11111222,99999999' 
WAVCIS,ioos:station:WAVCIS:CSI09:1,2011-03-04T04:00:00Z,29.1015,-89.9782,0.0,8.06,97.0,,'11111222,11111222,99999999' 
WAVCIS,ioos:station:WAVCIS:CSI09:1,2011-03-04T05:00:00Z,29.1015,-89.9782,0.0,7.83,95.0,,'11111222,11111222,99999999' 
WAVCIS,ioos:station:WAVCIS:CSI09:1,2011-03-04T06:00:00Z,29.1015,-89.9782,0.0,7.49,100.0,,'11111222,11111222,99999999' 
WAVCIS,ioos:station:WAVCIS:CSI09:1,2011-03-04T07:00:00Z,29.1015,-89.9782,0.0,6.15,94.0,,'11111222,11111222,99999999' 
WAVCIS,ioos:station:WAVCIS:CSI09:1,2011-03-04T08:00:00Z,29.1015,-89.9782,0.0,6.601,98.0,,'11111222,11111222,99999999' 
WAVCIS,ioos:station:WAVCIS:CSI09:1,2011-03-04T09:00:00Z,29.1015,-89.9782,0.0,6.683,110.0,,'11111222,11111222,99999999' 
WAVCIS,ioos:station:WAVCIS:CSI09:1,2011-03-04T10:00:00Z,29.1015,-89.9782,0.0,8.45,128.0,,'11111222,11111222,99999999' 
WAVCIS,ioos:station:WAVCIS:CSI09:1,2011-03-04T11:00:00Z,29.1015,-89.9782,0.0,7.58,114.0,,'11111222,11111222,99999999' 
WAVCIS,ioos:station:WAVCIS:CSI09:1,2011-03-04T12:00:00Z,29.1015,-89.9782,0.0,7.39,107.0,,'11111222,11111222,99999999' 
WAVCIS,ioos:station:WAVCIS:CSI09:1,2011-03-04T13:00:00Z,29.1015,-89.9782,0.0,8.01,111.0,,'11111222,11111222,99999999' 
WAVCIS,ioos:station:WAVCIS:CSI09:1,2011-03-04T14:00:00Z,29.1015,-89.9782,0.0,7.25,103.0,,'11111222,11111222,99999999' 
WAVCIS,ioos:station:WAVCIS:CSI09:1,2011-03-04T15:00:00Z,29.1015,-89.9782,0.0,6.146,99.0,,'11111222,11111222,99999999' 
WAVCIS,ioos:station:WAVCIS:CSI09:1,2011-03-04T16:00:00Z,29.1015,-89.9782,0.0,6.282,99.0,,'11111222,11111222,99999999' 
WAVCIS,ioos:station:WAVCIS:CSI09:1,2011-03-04T17:00:00Z,29.1015,-89.9782,0.0,9.22,124.0,,'11111222,11111222,99999999' 
WAVCIS,ioos:station:WAVCIS:CSI09:1,2011-03-04T18:00:00Z,29.1015,-89.9782,0.0,9.6,124.0,,'11111222,11111222,99999999' 
WAVCIS,ioos:station:WAVCIS:CSI09:1,2011-03-04T19:00:00Z,29.1015,-89.9782,0.0,10.22,130.0,,'11111222,11111222,99999999' 
WAVCIS,ioos:station:WAVCIS:CSI09:1,2011-03-04T20:00:00Z,29.1015,-89.9782,0.0,9.4,128.0,,'11111222,11111222,99999999' 
WAVCIS,ioos:station:WAVCIS:CSI09:1,2011-03-04T21:00:00Z,29.1015,-89.9782,0.0,10.56,128.0,,'11111222,11111222,99999999' 
WAVCIS,ioos:station:WAVCIS:CSI09:1,2011-03-04T22:00:00Z,29.1015,-89.9782,0.0,10.13,132.0,,'11111222,11111222,99999999' 
WAVCIS,ioos:station:WAVCIS:CSI09:1,2011-03-04T23:00:00Z,29.1015,-89.9782,0.0,9.47,130.0,,'11111222,11111222,99999999' 
WAVCIS,ioos:station:WAVCIS:CSI09:1,2011-03-05T00:00:00Z,29.1015,-89.9782,0.0,8.92,125.0,,'11111222,11111222,99999999' 
WAVCIS,ioos:station:WAVCIS:CSI09:1,2011-03-05T01:00:00Z,29.1015,-89.9782,0.0,11.09,127.0,,'11111222,11111222,99999999' 
WAVCIS,ioos:station:WAVCIS:CSI09:1,2011-03-05T02:00:00Z,29.1015,-89.9782,0.0,11.63,124.0,,'11111222,11111222,99999999' 
WAVCIS,ioos:station:WAVCIS:CSI09:1,2011-03-05T03:00:00Z,29.1015,-89.9782,0.0,11.15,123.0,,'11111222,11111222,99999999' 
WAVCIS,ioos:station:WAVCIS:CSI09:1,2011-03-05T04:00:00Z,29.1015,-89.9782,0.0,12.16,127.0,,'11111222,11111222,99999999' 
WAVCIS,ioos:station:WAVCIS:CSI09:1,2011-03-05T05:00:00Z,29.1015,-89.9782,0.0,10.13,140.0,,'11111222,11111222,99999999' 
WAVCIS,ioos:station:WAVCIS:CSI09:1,2011-03-05T06:00:00Z,29.1015,-89.9782,0.0,9.76,149.0,,'11111222,11111222,99999999' 
WAVCIS,ioos:station:WAVCIS:CSI09:1,2011-03-05T07:00:00Z,29.1015,-89.9782,0.0,8.85,154.0,,'11111222,11111222,99999999' 
WAVCIS,ioos:station:WAVCIS:CSI09:1,2011-03-05T08:00:00Z,29.1015,-89.9782,0.0,8.5,148.0,,'11111222,11111222,99999999' 
WAVCIS,ioos:station:WAVCIS:CSI09:1,2011-03-05T09:00:00Z,29.1015,-89.9782,0.0,7.59,150.0,,'11111222,11111222,99999999' 
WAVCIS,ioos:station:WAVCIS:CSI09:1,2011-03-05T10:00:00Z,29.1015,-89.9782,0.0,9.32,151.0,,'11111222,11111222,99999999' 
WAVCIS,ioos:station:WAVCIS:CSI09:1,2011-03-05T11:00:00Z,29.1015,-89.9782,0.0,7.83,154.0,,'11111222,11111222,99999999' 
WAVCIS,ioos:station:WAVCIS:CSI09:1,2011-03-05T12:00:00Z,29.1015,-89.9782,0.0,6.652,154.0,,'11111222,11111222,99999999' 
WAVCIS,ioos:station:WAVCIS:CSI09:1,2011-03-05T13:00:00Z,29.1015,-89.9782,0.0,7.1,159.0,,'11111222,11111222,99999999' 
WAVCIS,ioos:station:WAVCIS:CSI09:1,2011-03-05T14:00:00Z,29.1015,-89.9782,0.0,6.843,148.0,,'11111222,11111222,99999999' 
WAVCIS,ioos:station:WAVCIS:CSI09:1,2011-03-05T15:00:00Z,29.1015,-89.9782,0.0,6.773,154.0,,'11111222,11111222,99999999' 
WAVCIS,ioos:station:WAVCIS:CSI09:1,2011-03-05T16:00:00Z,29.1015,-89.9782,0.0,6.706,157.0,,'11111222,11111222,99999999' 
WAVCIS,ioos:station:WAVCIS:CSI09:1,2011-03-05T17:00:00Z,29.1015,-89.9782,0.0,7.35,152.0,,'11111222,11111222,99999999' 
WAVCIS,ioos:station:WAVCIS:CSI09:1,2011-03-05T18:00:00Z,29.1015,-89.9782,0.0,7.85,151.0,,'11111222,11111222,99999999' 
WAVCIS,ioos:station:WAVCIS:CSI09:1,2011-03-05T19:00:00Z,29.1015,-89.9782,0.0,9.39,154.0,,'11111222,11111222,99999999' 
WAVCIS,ioos:station:WAVCIS:CSI09:1,2011-03-05T20:00:00Z,29.1015,-89.9782,0.0,11.07,239.0,,'11111222,11111222,99999999' 
WAVCIS,ioos:station:WAVCIS:CSI09:1,2011-03-05T21:00:00Z,29.1015,-89.9782,0.0,4.927,256.0,,'11111222,11111222,99999999' 
WAVCIS,ioos:station:WAVCIS:CSI09:1,2011-03-05T22:00:00Z,29.1015,-89.9782,0.0,2.365,275.0,,'11111222,11111222,99999999' 
WAVCIS,ioos:station:WAVCIS:CSI09:1,2011-03-05T23:00:00Z,29.1015,-89.9782,0.0,3.489,128.0,,'11111222,11111222,99999999' 
WAVCIS,ioos:station:WAVCIS:CSI09:1,2011-03-06T00:00:00Z,29.1015,-89.9782,0.0,4.406,220.0,,'11111222,11111222,99999999' 
WAVCIS,ioos:station:WAVCIS:CSI09:1,2011-03-06T01:00:00Z,29.1015,-89.9782,0.0,5.432,261.0,,'11111222,11111222,99999999' 
WAVCIS,ioos:station:WAVCIS:CSI09:1,2011-03-06T02:00:00Z,29.1015,-89.9782,0.0,7.93,298.0,,'11111222,11111222,99999999' 
WAVCIS,ioos:station:WAVCIS:CSI09:1,2011-03-06T03:00:00Z,29.1015,-89.9782,0.0,12.34,322.0,,'11111222,11111222,99999999' 
WAVCIS,ioos:station:WAVCIS:CSI09:1,2011-03-06T04:00:00Z,29.1015,-89.9782,0.0,13.91,333.0,,'11111222,11111222,99999999' 
WAVCIS,ioos:station:WAVCIS:CSI09:1,2011-03-06T05:00:00Z,29.1015,-89.9782,0.0,13.83,341.0,,'11111222,11111222,99999999' 
WAVCIS,ioos:station:WAVCIS:CSI09:1,2011-03-06T06:00:00Z,29.1015,-89.9782,0.0,12.61,334.0,,'11111222,11111222,99999999' 
WAVCIS,ioos:station:WAVCIS:CSI09:1,2011-03-06T07:00:00Z,29.1015,-89.9782,0.0,13.84,332.0,,'11111222,11111222,99999999' 
WAVCIS,ioos:station:WAVCIS:CSI09:1,2011-03-06T08:00:00Z,29.1015,-89.9782,0.0,11.97,333.0,,'11111222,11111222,99999999' 
WAVCIS,ioos:station:WAVCIS:CSI09:1,2011-03-06T09:00:00Z,29.1015,-89.9782,0.0,10.78,332.0,,'11111222,11111222,99999999' 
WAVCIS,ioos:station:WAVCIS:CSI09:1,2011-03-06T10:00:00Z,29.1015,-89.9782,0.0,11.07,335.0,,'11111222,11111222,99999999' 
WAVCIS,ioos:station:WAVCIS:CSI09:1,2011-03-06T11:00:00Z,29.1015,-89.9782,0.0,12.09,332.0,,'11111222,11111222,99999999' 
WAVCIS,ioos:station:WAVCIS:CSI09:1,2011-03-06T12:00:00Z,29.1015,-89.9782,0.0,12.81,349.0,,'11111222,11111222,99999999' 
WAVCIS,ioos:station:WAVCIS:CSI09:1,2011-03-06T13:00:00Z,29.1015,-89.9782,0.0,10.42,346.0,,'11111222,11111222,99999999' 
WAVCIS,ioos:station:WAVCIS:CSI09:1,2011-03-06T14:00:00Z,29.1015,-89.9782,0.0,10.97,2.0,,'11111222,11111222,99999999' 
WAVCIS,ioos:station:WAVCIS:CSI09:1,2011-03-06T15:00:00Z,29.1015,-89.9782,0.0,8.27,9.0,,'11111222,11111222,99999999' 
WAVCIS,ioos:station:WAVCIS:CSI09:1,2011-03-06T16:00:00Z,29.1015,-89.9782,0.0,9.86,11.0,,'11111222,11111222,99999999' 
WAVCIS,ioos:station:WAVCIS:CSI09:1,2011-03-06T17:00:00Z,29.1015,-89.9782,0.0,10.14,9.0,,'11111222,11111222,99999999' 
WAVCIS,ioos:station:WAVCIS:CSI09:1,2011-03-06T18:00:00Z,29.1015,-89.9782,0.0,8.37,9.0,,'11111222,11111222,99999999' 
WAVCIS,ioos:station:WAVCIS:CSI09:1,2011-03-06T19:00:00Z,29.1015,-89.9782,0.0,7.73,12.0,,'11111222,11111222,99999999' 
WAVCIS,ioos:station:WAVCIS:CSI09:1,2011-03-06T20:00:00Z,29.1015,-89.9782,0.0,4.837,353.0,,'11111222,11111222,99999999' 
WAVCIS,ioos:station:WAVCIS:CSI09:1,2011-03-06T21:00:00Z,29.1015,-89.9782,0.0,4.938,23.0,,'11111222,11111222,99999999' 
WAVCIS,ioos:station:WAVCIS:CSI09:1,2011-03-06T22:00:00Z,29.1015,-89.9782,0.0,3.164,0.0,,'11111222,11111222,99999999' 
WAVCIS,ioos:station:WAVCIS:CSI09:1,2011-03-06T23:00:00Z,29.1015,-89.9782,0.0,4.629,0.0,,'11111222,11111222,99999999' 
WAVCIS,ioos:station:WAVCIS:CSI09:1,2011-03-07T00:00:00Z,29.1015,-89.9782,0.0,4.486,358.0,,'11111222,11111222,99999999' 
WAVCIS,ioos:station:WAVCIS:CSI09:1,2011-03-07T01:00:00Z,29.1015,-89.9782,0.0,3.81,26.0,,'11111222,11111222,99999999' 
WAVCIS,ioos:station:WAVCIS:CSI09:1,2011-03-07T02:00:00Z,29.1015,-89.9782,0.0,4.056,14.0,,'11111222,11111222,99999999' 
WAVCIS,ioos:station:WAVCIS:CSI09:1,2011-03-07T03:00:00Z,29.1015,-89.9782,0.0,4.67,21.0,,'11111222,11111222,99999999' 
WAVCIS,ioos:station:WAVCIS:CSI09:1,2011-03-07T04:00:00Z,29.1015,-89.9782,0.0,3.769,33.0,,'11111222,11111222,99999999' 
WAVCIS,ioos:station:WAVCIS:CSI09:1,2011-03-07T05:00:00Z,29.1015,-89.9782,0.0,3.746,45.0,,'11111222,11111222,99999999' 
WAVCIS,ioos:station:WAVCIS:CSI09:1,2011-03-07T06:00:00Z,29.1015,-89.9782,0.0,3.109,54.0,,'11111222,11111222,99999999' 
WAVCIS,ioos:station:WAVCIS:CSI09:1,2011-03-07T07:00:00Z,29.1015,-89.9782,0.0,3.721,3.0,,'11111222,11111222,99999999' 
WAVCIS,ioos:station:WAVCIS:CSI09:1,2011-03-07T08:00:00Z,29.1015,-89.9782,0.0,5.136,39.0,,'11111222,11111222,99999999' 
WAVCIS,ioos:station:WAVCIS:CSI09:1,2011-03-07T09:00:00Z,29.1015,-89.9782,0.0,3.177,88.0,,'11111222,11111222,99999999' 
WAVCIS,ioos:station:WAVCIS:CSI09:1,2011-03-07T10:00:00Z,29.1015,-89.9782,0.0,3.614,58.0,,'11111222,11111222,99999999' 
WAVCIS,ioos:station:WAVCIS:CSI09:1,2011-03-07T11:00:00Z,29.1015,-89.9782,0.0,4.463,76.0,,'11111222,11111222,99999999' 
WAVCIS,ioos:station:WAVCIS:CSI09:1,2011-03-07T12:00:00Z,29.1015,-89.9782,0.0,5.036,69.0,,'11111222,11111222,99999999' 
WAVCIS,ioos:station:WAVCIS:CSI09:1,2011-03-07T13:00:00Z,29.1015,-89.9782,0.0,6.184,74.0,,'11111222,11111222,99999999' 
WAVCIS,ioos:station:WAVCIS:CSI09:1,2011-03-07T14:00:00Z,29.1015,-89.9782,0.0,7.18,75.0,,'11111222,11111222,99999999' 
WAVCIS,ioos:station:WAVCIS:CSI09:1,2011-03-07T15:00:00Z,29.1015,-89.9782,0.0,6.872,80.0,,'11111222,11111222,99999999' 
WAVCIS,ioos:station:WAVCIS:CSI09:1,2011-03-07T16:00:00Z,29.1015,-89.9782,0.0,7.46,81.0,,'11111222,11111222,99999999' 
WAVCIS,ioos:station:WAVCIS:CSI09:1,2011-03-07T17:00:00Z,29.1015,-89.9782,0.0,8.95,78.0,,'11111222,11111222,99999999' 
WAVCIS,ioos:station:WAVCIS:CSI09:1,2011-03-07T18:00:00Z,29.1015,-89.9782,0.0,8.52,76.0,,'11111222,11111222,99999999' 
WAVCIS,ioos:station:WAVCIS:CSI09:1,2011-03-07T19:00:00Z,29.1015,-89.9782,0.0,8.37,78.0,,'11111222,11111222,99999999' 
WAVCIS,ioos:station:WAVCIS:CSI09:1,2011-03-07T20:00:00Z,29.1015,-89.9782,0.0,7.87,82.0,,'11111222,11111222,99999999' 
WAVCIS,ioos:station:WAVCIS:CSI09:1,2011-03-07T21:00:00Z,29.1015,-89.9782,0.0,8.41,79.0,,'11111222,11111222,99999999' 
WAVCIS,ioos:station:WAVCIS:CSI09:1,2011-03-07T22:00:00Z,29.1015,-89.9782,0.0,7.94,80.0,,'11111222,11111222,99999999' 
WAVCIS,ioos:station:WAVCIS:CSI09:1,2011-03-07T23:00:00Z,29.1015,-89.9782,0.0,8.16,81.0,,'11111222,11111222,99999999' 
WAVCIS,ioos:station:WAVCIS:CSI09:1,2011-03-08T00:00:00Z,29.1015,-89.9782,0.0,9.07,87.0,,'11111222,11111222,99999999' 
WAVCIS,ioos:station:WAVCIS:CSI09:1,2011-03-08T01:00:00Z,29.1015,-89.9782,0.0,7.33,96.0,,'11111222,11111222,99999999' 
WAVCIS,ioos:station:WAVCIS:CSI09:1,2011-03-08T02:00:00Z,29.1015,-89.9782,0.0,8.5,92.0,,'11111222,11111222,99999999' 
WAVCIS,ioos:station:WAVCIS:CSI09:1,2011-03-08T03:00:00Z,29.1015,-89.9782,0.0,7.82,94.0,,'11111222,11111222,99999999' 
WAVCIS,ioos:station:WAVCIS:CSI09:1,2011-03-08T04:00:00Z,29.1015,-89.9782,0.0,8.76,103.0,,'11111222,11111222,99999999' 
WAVCIS,ioos:station:WAVCIS:CSI09:1,2011-03-08T05:00:00Z,29.1015,-89.9782,0.0,7.94,102.0,,'11111222,11111222,99999999' 
WAVCIS,ioos:station:WAVCIS:CSI09:1,2011-03-08T06:00:00Z,29.1015,-89.9782,0.0,6.879,101.0,,'11111222,11111222,99999999' 
WAVCIS,ioos:station:WAVCIS:CSI09:1,2011-03-08T07:00:00Z,29.1015,-89.9782,0.0,6.719,104.0,,'11111222,11111222,99999999' 
WAVCIS,ioos:station:WAVCIS:CSI09:1,2011-03-08T08:00:00Z,29.1015,-89.9782,0.0,6.89,105.0,,'11111222,11111222,99999999' 
WAVCIS,ioos:station:WAVCIS:CSI09:1,2011-03-08T09:00:00Z,29.1015,-89.9782,0.0,10.4,116.0,,'11111222,11111222,99999999' 
WAVCIS,ioos:station:WAVCIS:CSI09:1,2011-03-08T10:00:00Z,29.1015,-89.9782,0.0,10.8,116.0,,'11111222,11111222,99999999' 
WAVCIS,ioos:station:WAVCIS:CSI09:1,2011-03-08T11:00:00Z,29.1015,-89.9782,0.0,10.66,118.0,,'11111222,11111222,99999999' 
WAVCIS,ioos:station:WAVCIS:CSI09:1,2011-03-08T12:00:00Z,29.1015,-89.9782,0.0,9.44,123.0,,'11111222,11111222,99999999' 
WAVCIS,ioos:station:WAVCIS:CSI09:1,2011-03-08T13:00:00Z,29.1015,-89.9782,0.0,8.91,123.0,,'11111222,11111222,99999999' 
WAVCIS,ioos:station:WAVCIS:CSI09:1,2011-03-08T14:00:00Z,29.1015,-89.9782,0.0,8.81,124.0,,'11111222,11111222,99999999' 
WAVCIS,ioos:station:WAVCIS:CSI09:1,2011-03-08T15:00:00Z,29.1015,-89.9782,0.0,8.91,122.0,,'11111222,11111222,99999999' 
WAVCIS,ioos:station:WAVCIS:CSI09:1,2011-03-08T16:00:00Z,29.1015,-89.9782,0.0,9.82,125.0,,'11111222,11111222,99999999' 
WAVCIS,ioos:station:WAVCIS:CSI09:1,2011-03-08T17:00:00Z,29.1015,-89.9782,0.0,11.36,124.0,,'11111222,11111222,99999999' 
WAVCIS,ioos:station:WAVCIS:CSI09:1,2011-03-08T18:00:00Z,29.1015,-89.9782,0.0,12.34,132.0,,'11111222,11111222,99999999' 
WAVCIS,ioos:station:WAVCIS:CSI09:1,2011-03-08T19:00:00Z,29.1015,-89.9782,0.0,9.61,138.0,,'11111222,11111222,99999999' 
WAVCIS,ioos:station:WAVCIS:CSI09:1,2011-03-08T20:00:00Z,29.1015,-89.9782,0.0,9.78,140.0,,'11111222,11111222,99999999' 
WAVCIS,ioos:station:WAVCIS:CSI09:1,2011-03-08T21:00:00Z,29.1015,-89.9782,0.0,10.55,138.0,,'11111222,11111222,99999999' 
WAVCIS,ioos:station:WAVCIS:CSI09:1,2011-03-08T22:00:00Z,29.1015,-89.9782,0.0,10.42,140.0,,'11111222,11111222,99999999' 
WAVCIS,ioos:station:WAVCIS:CSI09:1,2011-03-08T23:00:00Z,29.1015,-89.9782,0.0,9.88,141.0,,'11111222,11111222,99999999' 
WAVCIS,ioos:station:WAVCIS:CSI09:1,2011-03-09T00:00:00Z,29.1015,-89.9782,0.0,10.46,141.0,,'11111222,11111222,99999999' 
WAVCIS,ioos:station:WAVCIS:CSI09:1,2011-03-09T01:00:00Z,29.1015,-89.9782,0.0,9.13,140.0,,'11111222,11111222,99999999' 
WAVCIS,ioos:station:WAVCIS:CSI09:1,2011-03-09T02:00:00Z,29.1015,-89.9782,0.0,9.67,139.0,,'11111222,11111222,99999999' 
WAVCIS,ioos:station:WAVCIS:CSI09:1,2011-03-09T03:00:00Z,29.1015,-89.9782,0.0,9.47,140.0,,'11111222,11111222,99999999' 
WAVCIS,ioos:station:WAVCIS:CSI09:1,2011-03-09T04:00:00Z,29.1015,-89.9782,0.0,8.1,142.0,,'11111222,11111222,99999999' 
WAVCIS,ioos:station:WAVCIS:CSI09:1,2011-03-09T05:00:00Z,29.1015,-89.9782,0.0,10.79,143.0,,'11111222,11111222,99999999' 
WAVCIS,ioos:station:WAVCIS:CSI09:1,2011-03-09T06:00:00Z,29.1015,-89.9782,0.0,8.74,146.0,,'11111222,11111222,99999999' 
WAVCIS,ioos:station:WAVCIS:CSI09:1,2011-03-09T07:00:00Z,29.1015,-89.9782,0.0,9.42,148.0,,'11111222,11111222,99999999' 
WAVCIS,ioos:station:WAVCIS:CSI09:1,2011-03-09T08:00:00Z,29.1015,-89.9782,0.0,9.69,152.0,,'11111222,11111222,99999999' 